Terminal Aerodrome Forecast
Issued by NWS

Home | Current Version | Previous Version | Text Only | Print | Product List | Glossary On
Versions: 1 2 3 4 5 6 7 8 9 10 11 12 13 14 15
000
FTUS44 KLUB 202029 AAA
TAFCDS
TAF AMD
KCDS 202029Z 2020/2118 18011KT P6SM VCSH SCT080
     FM210000 16008KT P6SM FEW080 SCT250=

USA.gov is the U.S. government's official web portal to all federal, state and local government web resources and services.